Showing default

SHIYAN 28B-01(SY-28B 01), 64753

Orbit data source: Space-Track

SHIYAN 28B-01(SY-28B 01), 64753 is a payload satellite owned by PLA GAD (CN) in LEO that was launched on Thu, 03 Jul 2025 UTC via a CHANG ZHENG 4C launch vehicle from the Xichang Space Center, China (XSC). Payload-class satellites include a variety of spacecraft equipped with specific instruments for various scientific and technological missions. These include communications satellites like Starlink; space stations such as the ISS; scientific satellites like the Hubble; Earth observation satellites from companies like Planet Labs, Umbra, and HawkEye 360; GPS; miniature CubeSats for education and research; and military/defense satellites.

Not visible in the next 10 days
Identifier
64753, 2025-145A
Orbit
LEO
Country
Flag of CNCN / PRC
Related business
Manufacturer
IMI/CAS
Mission
Operational Defense Earth Obs Sci
Bus & Motor
Unknown
Mass
~2,000 kg wet, ~2,000 kg dry
Launch date (UTC)
2025-07-03 (1 year ago)
Launch vehicle
CHANG ZHENG 4C
Launch site
Xichang Space Center, China (XSC)
Object type
Payload
Rocket body
Debris
Shape & HBR
Box + 2 Pan, 1.9 m
Radar Cross Section
11.063 m², Large (>1 m²)

Expand to show TLE details & history
Last TLE update: 7 hours ago

TLE from 7 hours ago
0 SHIYAN 28B-01(SY-28B 01)
1 64753U 25145A   26236.60166625  .00000581  00000-0  57455-4 0  9997
2 64753  10.9982 240.6136 0003220 287.7212  72.2664 14.29414776 59718
Epoch: 2026-08-24T14:26Z
TLE epoch observation values (Epoch: 2026-08-24T14:26:23.963Z)
Latitude
-0.00002°
Longitude
51.13265°
Altitude
790.151 km
Speed
7.462 km/s
True Right ascension
16h 02m 27s
True Declination
0° 00' 00"
Sunlit
Object was in daylight at epoch
Visualization orbit readout
Latitude
Unknown
Longitude
Unknown
Altitude
Unknown
Speed
Unknown
Apparent Right ascension
Unknown
Apparent Declination
Unknown
Sunlit
N/A
Visualization observer readout
Local Sidereal Time
13:05:45
Azimuth
Unknown
Elevation
Unknown
Doppler factor
Unknown
Orbital elements
Apogee altitude
801.812 km
Perigee altitude
797.19 km
Semi-major axis
7,177.638 km
Eccentricity
0.00032
Inclination
10.9982°
RAAN
240.6136°
Arg. of periapsis
287.7212°
True anomaly
72.30155°
Mean anomaly
72.2664°
Eccentric anomaly
72.28397°
Mean motion
3.5692 °/min
Orbital period
100.86 mins
BSTAR
0.000057455
Loading maneuver chart data...
Computing Atmospheric mass density...
Loading historical data...
Loading historical data...
Loading historical data...
Loading historical data...
Loading historical data...
Loading historical data...
Loading historical data...
Other satellites on launch #145 in the year 2025 (2025-07-03 UTC)

Documentation

Showing up to 5 results
|